Flag for Italy Weather past 2 weeks in Venice, Italy

Now
57 °F

Scattered clouds.


Feels Like: 55 °F
Forecast: 47 / 62 °F
Wind: 9 mph from Southeast

Location: Venice / Tessera

Current Time: Mar 31, 2015 at 2:08:16 PM

Latest Report: Mar 31, 2015 at 1:20 PM


Visibility: N/A

Pressure: 29.71 "Hg

Humidity: 82%

Dew point: 52 °F

Location of VeniceLocation

Historic Weather in Venice — Graph

°F

Venice temperature yesterday

Maximum temperature yesterday: 61 °F (at 12:50 PM)
Minimum temperature yesterday: 43 °F (at 7:20 AM)
Average temperature yesterday: 54 °F

Past Weeks' High & Low Weather Summary

 TemperatureHumidityPressure
High63 °F (Mar 19, 4:20 PM)100% (Mar 21, 4:50 AM)30.39 "Hg (Mar 21, 4:50 AM)
Low39 °F (Mar 21, 5:20 AM)34% (Mar 28, 3:50 PM)29.47 "Hg (Mar 25, 5:20 PM)
Average51 °F75%29.98 "Hg
* Reported Mar 16 11:20 AM — Mar 31 12:50 PM, Venice, Weather by CustomWeather, © 2015

Note: Actual official high and low records may vary slightly from our data, if they occured in-between our weather recording intervals... More about our weather records

Advertising

Venice weather history for previous 24 hours

 ConditionsComfort  
Time TempWeatherWind HumidityBarometerVisibility
12:50 PM
Tue, Mar 31
59 °FScattered clouds.7 mph72%29.74 "HgN/A
12:20 PM59 °FPassing clouds.6 mph72%29.74 "HgN/A
11:50 AM59 °FPassing clouds.5 mph77%29.77 "HgN/A
11:20 AM57 °FScattered clouds.6 mph77%29.77 "HgN/A
10:50 AM55 °FScattered clouds.6 mph82%29.80 "HgN/A
10:20 AM55 °FBroken clouds.5 mph82%29.80 "HgN/A
9:50 AM55 °FScattered clouds.8 mph82%29.80 "HgN/A
9:20 AM54 °FScattered clouds.8 mph88%29.80 "HgN/A
8:50 AM54 °FScattered clouds.7 mph82%29.83 "HgN/A
8:20 AM52 °FScattered clouds.7 mph88%29.83 "HgN/A
7:50 AM52 °FPartly cloudy.7 mph82%29.83 "Hg6 mi
7:20 AM50 °FPartly cloudy.8 mph88%29.83 "Hg5 mi
6:50 AM52 °FPassing clouds.9 mph82%29.83 "Hg5 mi
6:20 AM52 °FPassing clouds.10 mph82%29.83 "Hg5 mi
5:50 AM50 °FPassing clouds.8 mph88%29.83 "Hg5 mi
5:20 AM50 °FPartly cloudy.8 mph94%29.83 "Hg5 mi
4:50 AM50 °FPartly cloudy.7 mph94%29.83 "Hg5 mi
4:20 AM50 °FPassing clouds.8 mph94%29.86 "Hg5 mi
3:50 AM50 °FPassing clouds.5 mph88%29.83 "Hg5 mi
3:20 AM50 °FClear.3 mph88%29.83 "Hg6 mi
2:50 AM50 °FClear.5 mph88%29.83 "Hg10 mi
2:20 AM50 °FClear.8 mph94%29.83 "Hg10 mi
1:50 AM50 °FClear.9 mph94%29.83 "Hg10 mi
1:20 AM50 °FClear.6 mph94%29.83 "Hg10 mi
12:50 AM52 °FClear.2 mph94%29.80 "Hg10 mi
12:20 AM54 °FClear.7 mph94%29.80 "Hg10 mi
11:50 PM
Mon, Mar 30
54 °FClear.8 mph88%29.77 "Hg10 mi
10:50 PM54 °FClear.9 mph82%29.77 "Hg10 mi
10:20 PM55 °FClear.8 mph77%29.74 "Hg10 mi
9:50 PM55 °FClear.10 mph77%29.74 "Hg10 mi
9:20 PM55 °FClear.9 mph77%29.71 "Hg10 mi
8:50 PM57 °FPassing clouds.9 mph72%29.71 "HgN/A
8:20 PM57 °FPassing clouds.6 mph72%29.68 "HgN/A
7:50 PM57 °FPassing clouds.7 mph72%29.68 "HgN/A
7:20 PM57 °FSunny.7 mph72%29.62 "Hg10 mi
6:50 PM57 °FPassing clouds.9 mph72%29.62 "HgN/A
6:20 PM57 °FPassing clouds.12 mph72%29.59 "HgN/A
5:50 PM59 °FPassing clouds.12 mph59%29.62 "HgN/A
5:20 PM57 °FPassing clouds.12 mph67%29.59 "HgN/A
4:50 PM59 °FPassing clouds.12 mph63%29.59 "HgN/A
4:20 PM57 °FPassing clouds.12 mph59%29.59 "HgN/A
3:50 PM59 °FSunny.13 mph55%29.59 "Hg10 mi
3:20 PM61 °FSunny.12 mph48%29.59 "Hg10 mi
2:50 PM61 °FSunny.8 mph45%29.59 "Hg10 mi
2:20 PM61 °FPassing clouds.9 mph48%29.59 "HgN/A
Weather by CustomWeather, © 2015

See weather overviewHow to use our weather pages